Chehalis, WA

6:01 AM PST on December 04, 2016 (GMT -0800)
Chehalis-Centralia

Weather History for KCLS - November, 2012

Change the Weather History Date:

Saturday, November 3, 2012

  Actual Average (KOLM) Record (KOLM)
Temperature  
Mean Temperature 56 °F 46 °F  
Max Temperature 59 °F 54 °F 71 °F (1949)
Min Temperature 53 °F 38 °F 18 °F (2002)
Degree Days  
Heating Degree Days 9 19  
Month to date heating degree days 56  
Since 1 July heating degree days 850  
Cooling Degree Days 0 0  
Month to date cooling degree days 0  
Year to date cooling degree days 106  
Growing Degree Days 6 (Base 50)    
Moisture  
Dew Point 54 °F    
Average Humidity 93    
Maximum Humidity 100    
Minimum Humidity 88    
Precipitation  
Precipitation 0.04 in 0.25 in 1.83 in (1983)
Month to date precipitation 0.73  
Year to date precipitation 34.64  
Sea Level Pressure  
Sea Level Pressure 30.08 in    
Wind  
Wind Speed 7 mph (South)    
Max Wind Speed 15 mph    
Max Gust Speed 22 mph    
Visibility 10 miles    
Events Rain    
T = Trace of Precipitation, MM = Missing Value Source: NWS Daily Summary

Daily Weather History Graph

Daily Weather History Graph

Search for Another Location

Airport or City:

Trip Planner

Search our weather history database for the weather conditions in past years. The results will help you decide how hot, cold, wet, or windy it might be!

Date:

Astronomy

Nov. 03, 2012 Rise Set
Actual Time 7:57 AM PDT 5:52 PM PDT
Civil Twilight 7:25 AM PDT 6:24 PM PDT
Nautical Twilight 6:49 AM PDT 7:00 PM PDT
Astronomical Twilight 6:14 AM PDT 7:35 PM PDT
Moon 9:33 PM PDT (11/3) 12:11 PM PDT (11/3)
Length of Visible Light 10h 58m
Length of Day
9h 54m
Waning Gibbous, 79% of the Moon is Illuminated
Nov 3
Waning Gibbous
Nov 6
Last Quarter
Nov 13
New
Nov 20
First Quarter
Nov 28
Full

Hourly Weather History & Observations

Time (PDT) Temp. Dew Point Humidity Pressure Visibility Wind Dir Wind Speed Gust Speed Precip Events Conditions
12:15 AM 53.6 °F 51.8 °F 94% 29.99 in 10.0 mi SSW 4.6 mph - N/A   Unknown
12:35 AM 53.6 °F 51.8 °F 94% 29.99 in 10.0 mi South 4.6 mph - N/A   Unknown
12:55 AM 53.6 °F 51.8 °F 94% 29.99 in 10.0 mi SSW 4.6 mph - N/A   Unknown
1:15 AM 53.6 °F 51.8 °F 94% 29.99 in 10.0 mi SSW 5.8 mph - N/A   Unknown
1:35 AM 53.6 °F 51.8 °F 94% 29.99 in 10.0 mi SSW 5.8 mph - 0.01 in   Unknown
1:55 AM 53.6 °F 51.8 °F 94% 30.00 in 10.0 mi South 6.9 mph - 0.01 in   Unknown
2:15 AM 53.6 °F 51.8 °F 94% 29.99 in 10.0 mi South 8.1 mph - N/A   Unknown
2:35 AM 53.6 °F 51.8 °F 94% 30.00 in 10.0 mi South 6.9 mph - N/A   Unknown
2:55 AM 53.6 °F 51.8 °F 94% 30.00 in 3.0 mi South 6.9 mph - 0.01 in   Mist
3:15 AM 53.6 °F 51.8 °F 94% 30.00 in 7.0 mi SSW 5.8 mph - N/A Rain Light Rain
3:35 AM 53.6 °F 51.8 °F 94% 30.01 in 10.0 mi South 5.8 mph - N/A   Unknown
3:55 AM 53.6 °F 51.8 °F 94% 30.00 in 10.0 mi South 5.8 mph - N/A   Unknown
4:15 AM 53.6 °F 51.8 °F 94% 30.01 in 10.0 mi South 6.9 mph - N/A   Unknown
4:35 AM 53.6 °F 51.8 °F 94% 30.01 in 8.0 mi South 5.8 mph - N/A   Unknown
4:55 AM 53.6 °F 51.8 °F 94% 30.01 in 10.0 mi South 6.9 mph - N/A   Unknown
5:15 AM 53.6 °F 51.8 °F 94% 30.02 in 10.0 mi South 8.1 mph - N/A   Unknown
5:35 AM 53.6 °F 51.8 °F 94% 30.02 in 10.0 mi South 9.2 mph - N/A   Unknown
5:55 AM 53.6 °F 51.8 °F 94% 30.02 in 10.0 mi South 6.9 mph - 0.01 in   Unknown
6:15 AM 53.6 °F 51.8 °F 94% 30.02 in 10.0 mi South 5.8 mph - N/A   Unknown
6:35 AM 53.6 °F 51.8 °F 94% 30.02 in 10.0 mi South 6.9 mph - N/A   Unknown
6:55 AM 53.6 °F 51.8 °F 94% 30.02 in 10.0 mi South 8.1 mph - N/A   Unknown
7:15 AM 53.6 °F 53.6 °F 100% 30.03 in 10.0 mi South 8.1 mph - N/A   Unknown
7:35 AM 53.6 °F 53.6 °F 100% 30.03 in 10.0 mi South 5.8 mph - N/A   Unknown
7:55 AM 53.6 °F 53.6 °F 100% 30.03 in 10.0 mi South 5.8 mph - N/A   Unknown
8:35 AM 55.4 °F 53.6 °F 94% 30.04 in 10.0 mi SSE 9.2 mph - N/A   Unknown
8:55 AM 55.4 °F 53.6 °F 94% 30.05 in 10.0 mi South 9.2 mph - N/A   Unknown
9:15 AM 55.4 °F 53.6 °F 94% 30.05 in 10.0 mi South 11.5 mph - N/A   Unknown
9:35 AM 55.4 °F 53.6 °F 94% 30.05 in 10.0 mi South 9.2 mph - N/A   Unknown
9:55 AM 55.4 °F 53.6 °F 94% 30.06 in 10.0 mi South 10.4 mph 17.3 mph N/A   Unknown
10:15 AM 55.4 °F 53.6 °F 94% 30.06 in 10.0 mi South 10.4 mph - N/A   Unknown
10:35 AM 55.4 °F 53.6 °F 94% 30.06 in 10.0 mi South 9.2 mph - N/A   Unknown
11:15 AM 57.2 °F 53.6 °F 88% 30.08 in 10.0 mi South 11.5 mph 17.3 mph N/A   Unknown
11:35 AM 57.2 °F 53.6 °F 88% 30.08 in 10.0 mi South 11.5 mph - N/A   Unknown
11:55 AM 57.2 °F 53.6 °F 88% 30.08 in 10.0 mi South 15.0 mph 21.9 mph N/A   Unknown
12:15 PM 57.2 °F 55.4 °F 94% 30.08 in 10.0 mi South 15.0 mph 20.7 mph N/A   Unknown
12:35 PM 59.0 °F 55.4 °F 88% 30.09 in 10.0 mi South 12.7 mph 18.4 mph N/A   Unknown
12:55 PM 59.0 °F 55.4 °F 88% 30.09 in 10.0 mi South 12.7 mph - N/A   Unknown
1:15 PM 59.0 °F 55.4 °F 88% 30.09 in 10.0 mi South 13.8 mph 17.3 mph N/A   Unknown
1:35 PM 59.0 °F 55.4 °F 88% 30.09 in 10.0 mi South 11.5 mph 18.4 mph N/A   Unknown
1:55 PM 59.0 °F 55.4 °F 88% 30.09 in 10.0 mi South 12.7 mph 18.4 mph N/A   Unknown
2:15 PM 59.0 °F 55.4 °F 88% 30.10 in 10.0 mi South 12.7 mph 17.3 mph N/A   Unknown
2:35 PM 59.0 °F 55.4 °F 88% 30.10 in 10.0 mi South 10.4 mph 16.1 mph N/A   Unknown
2:55 PM 59.0 °F 55.4 °F 88% 30.10 in 9.0 mi South 11.5 mph 18.4 mph N/A   Unknown
3:15 PM 59.0 °F 55.4 °F 88% 30.11 in 4.0 mi South 10.4 mph - N/A   Mist
3:35 PM 59.0 °F 55.4 °F 88% 30.12 in 9.0 mi South 10.4 mph - N/A   Unknown
3:55 PM 59.0 °F 55.4 °F 88% 30.13 in 2.0 mi SSW 6.9 mph - N/A Rain Light Rain
4:15 PM 57.2 °F 55.4 °F 94% 30.14 in 9.0 mi South 5.8 mph - N/A   Unknown
4:35 PM 59.0 °F 55.4 °F 88% 30.14 in 10.0 mi South 6.9 mph - N/A   Unknown
4:55 PM 59.0 °F 55.4 °F 88% 30.14 in 10.0 mi SSE 8.1 mph - N/A   Unknown
5:15 PM 59.0 °F 55.4 °F 88% 30.15 in 10.0 mi South 6.9 mph - N/A   Unknown
5:35 PM 59.0 °F 55.4 °F 88% 30.15 in 10.0 mi South 4.6 mph - N/A   Unknown
5:55 PM 59.0 °F 55.4 °F 88% 30.15 in 10.0 mi South 5.8 mph - N/A   Unknown
6:15 PM 57.2 °F 55.4 °F 94% 30.16 in 10.0 mi Calm Calm - N/A   Unknown
6:35 PM 57.2 °F 55.4 °F 94% 30.16 in 10.0 mi Calm Calm - N/A   Unknown
6:55 PM 57.2 °F 55.4 °F 94% 30.17 in 10.0 mi Calm Calm - N/A   Unknown
7:35 PM 57.2 °F 55.4 °F 94% 30.18 in 10.0 mi South 3.5 mph - N/A   Unknown
7:55 PM 57.2 °F 55.4 °F 94% 30.17 in 10.0 mi South 3.5 mph - N/A   Unknown
8:15 PM 57.2 °F 55.4 °F 94% 30.17 in 10.0 mi Calm Calm - N/A   Unknown
8:35 PM 57.2 °F 55.4 °F 94% 30.16 in 10.0 mi Calm Calm - N/A   Unknown
8:55 PM 55.4 °F 55.4 °F 100% 30.16 in 10.0 mi Calm Calm - N/A   Unknown
9:15 PM 57.2 °F 55.4 °F 94% 30.17 in 10.0 mi Calm Calm - 0.01 in   Unknown
9:35 PM 57.2 °F 55.4 °F 94% 30.17 in 10.0 mi South 3.5 mph - 0.01 in   Unknown
9:55 PM 57.2 °F 55.4 °F 94% 30.17 in 10.0 mi Calm Calm - 0.01 in   Unknown
10:15 PM 57.2 °F 55.4 °F 94% 30.17 in 10.0 mi South 3.5 mph - N/A   Unknown
10:35 PM 57.2 °F 55.4 °F 94% 30.19 in 10.0 mi Calm Calm - N/A   Unknown
10:55 PM 57.2 °F 55.4 °F 94% 30.19 in 10.0 mi South 3.5 mph - N/A   Unknown
11:15 PM 57.2 °F 55.4 °F 94% 30.19 in 10.0 mi South 3.5 mph - N/A   Unknown
11:35 PM 57.2 °F 55.4 °F 94% 30.18 in 10.0 mi South 4.6 mph - N/A   Unknown
11:55 PM 57.2 °F 55.4 °F 94% 30.19 in 10.0 mi South 4.6 mph - N/A   Unknown